Temperature
2 2 2 2 2 3 3 3 3 2 2 3 3 3 3 3 4 4 4 4 4 4 4 5 5 4 4 4 4 4 4 4 4 4 4 3 3 3
1 1 2 2 2 2 2 2 2 2 2 2 2 2 2 3 3 3 3 3 3 4 4 3 3 4 4 4 3 4 4 3 3 3 3 3 3 3
1 1 1 1 1 1 1 2 2 1 1 2 2 2 2 2 2 2 2 2 3 3 3 3 3 3 3 3 3 3 3 3 3 3 2 2 2 2
1 1 1 1 1 1 1 1 1 1 1 1 1 1 1 1 1 2 2 2 2 2 2 2 2 2 2 2 2 2 2 2 2 2 2 2 2 2
0 0 0 0 0 0 0 0 1 1 1 1 1 0 1 1 1 1 1 1 1 1 1 1 1 1 1 1 1 2 2 2 1 2 1 2 2 2
-0 -0 -0 -0 -0 -0 -0 -0 -0 0 0 -0 -0 -0 -0 0 0 0 1 1 1 1 0 0 0 0 1 1 1 1 1 1 1 1 1 1 1 1
-1 -1 -1 -1 -1 -1 -1 -1 -1 -1 -1 -1 -1 -1 -1 -1 -1 -0 -0 -0 0 -0 -0 -0 -0 -0 0 0 0 0 0 0 0 0 0 0 0 0
-1 -1 -1 -1 -1 -1 -1 -1 -1 -1 -1 -1 -1 -1 -1 -1 -1 -1 -1 -1 -1 -1 -1 -1 -1 -1 -1 -1 -1 -1 -1 -1 -1 -0 -0 -0 -0 -0
-2 -2 -2 -2 -2 -2 -1 -2 -2 -2 -1 -1 -1 -2 -2 -2 -2 -2 -2 -2 -2 -2 -2 -1 -1 -1 -1 -1 -1 -1 -1 -1 -1 -1 -1 -1 -1 -1
-2 -2 -2 -2 -2 -2 -2 -2 -2 -2 -2 -2 -2 -2 -2 -2 -2 -2 -2 -2 -2 -2 -2 -2 -2 -2 -2 -2 -2 -2 -2 -2 -2 -2 -2 -2 -2 -2
-2 -3 -3 -2 -2 -2 -2 -3 -3 -3 -3 -3 -3 -3 -3 -3 -3 -3 -3 -3 -3 -3 -3 -3 -3 -3 -2 -2 -2 -2 -3 -2 -2 -2 -2 -2 -2 -2
-3 -3 -3 -3 -3 -3 -3 -3 -3 -3 -3 -3 -3 -3 -3 -3 -3 -3 -3 -3 -3 -4 -4 -4 -4 -4 -4 -3 -3 -3 -3 -3 -3 -3 -3 -2 -2 -2
-3 -3 -3 -3 -3 -3 -3 -3 -3 -3 -3 -3 -3 -3 -3 -3 -3 -3 -3 -4 -4 -4 -4 -4 -4 -4 -5 -5 -3 -3 -3 -3 -3 -3 -3 -3 -3 -3
-3 -3 -3 -3 -4 -4 -4 -4 -4 -4 -4 -4 -4 -4 -4 -4 -4 -4 -4 -4 -4 -4 -4 -4 -5 -5 -5 -5 -5 -4 -4 -4 -4 -4 -4 -4 -4 -4
-4 -4 -4 -4 -4 -4 -4 -4 -4 -4 -4 -4 -4 -4 -4 -4 -4 -4 -4 -4 -4 -4 -4 -5 -5 -5 -5 -5 -5 -5 -5 -4 -4 -4 -4 -4 -4 -4
-4 -4 -4 -4 -4 -4 -4 -4 -4 -4 -4 -4 -4 -4 -4 -4 -4 -4 -4 -4 -5 -5 -5 -5 -5 -5 -5 -5 -5 -5 -5 -5 -5 -5 -4 -4 -4 -4
-4 -4 -4 -4 -4 -4 -4 -5 -5 -5 -5 -5 -5 -5 -5 -5 -5 -5 -5 -5 -5 -5 -5 -5 -5 -5 -5 -5 -5 -5 -5 -5 -5 -5 -5 -5 -4 -5
-5 -5 -5 -5 -5 -5 -5 -5 -5 -5 -5 -5 -5 -5 -5 -5 -5 -5 -5 -5 -6 -6 -6 -6 -5 -5 -5 -5 -5 -5 -5 -5 -5 -5 -5 -5 -5 -5
-5 -5 -5 -5 -5 -5 -5 -5 -5 -5 -5 -5 -6 -6 -6 -6 -6 -6 -6 -6 -6 -6 -6 -6 -6 -6 -6 -6 -6 -6 -6 -6 -6 -5 -6 -6 -5 -5
-5 -5 -5 -5 -5 -5 -5 -6 -6 -6 -6 -6 -6 -6 -6 -6 -6 -6 -6 -6 -6 -6 -6 -6 -6 -6 -6 -6 -6 -6 -6 -6 -6 -6 -6 -6 -5 -5
-5 -5 -5 -5 -5 -6 -6 -6 -6 -6 -6 -6 -6 -6 -6 -6 -6 -6 -6 -6 -6 -6 -6 -6 -6 -6 -6 -6 -6 -6 -6 -6 -6 -6 -6 -6 -6 -5
-6 -6 -6 -6 -6 -6 -6 -6 -6 -6 -6 -6 -6 -6 -6 -6 -7 -7 -7 -7 -7 -7 -6 -6 -6 -6 -6 -7 -7 -7 -6 -6 -6 -6 -6 -6 -7 -7
-6 -6 -6 -6 -6 -6 -6 -6 -6 -6 -6 -7 -7 -7 -7 -7 -7 -7 -7 -7 -7 -7 -7 -7 -6 -7 -7 -7 -7 -7 -7 -7 -6 -6 -6 -6 -6 -7
Wind_Speed
1 1 1 1 1 1 1 2 2 2 2 2 1 1 3 3 3 4 4 5 6 6 6 6 6 6 5 5 5 5 5 5 6 7 7 7 8 9
1 1 1 1 1 0 1 0 1 2 2 2 2 1 2 3 4 4 3 4 5 6 6 6 6 6 5 5 6 6 6 5 5 6 7 8 8 9
1 1 1 1 1 1 1 0 1 1 2 2 2 1 1 1 3 4 3 3 4 5 5 5 6 6 6 6 6 6 6 6 6 7 7 8 8 9
2 2 2 1 1 1 1 1 1 2 2 2 2 1 1 1 2 2 3 4 4 4 5 5 6 6 7 6 6 7 7 7 7 7 7 8 9 9
3 3 2 2 2 2 2 2 2 2 2 3 2 1 1 1 1 2 3 3 4 5 5 6 6 7 7 7 6 6 6 6 7 6 7 8 9 10
2 3 3 3 3 3 3 3 2 2 2 3 3 1 1 1 0 1 2 2 3 4 5 6 7 7 7 7 6 6 6 6 7 6 6 7 8 9
2 2 3 3 3 3 2 2 2 2 2 2 3 2 1 0 1 1 2 3 3 2 3 4 5 5 7 7 7 7 6 6 6 6 7 7 7 9
2 2 3 3 3 4 4 3 2 3 3 3 2 2 2 2 1 1 1 2 2 2 2 4 3 3 5 6 7 7 7 6 6 7 7 8 8 8
3 2 2 2 2 1 2 2 2 2 3 3 3 3 3 3 2 2 2 2 3 2 2 3 2 3 4 6 7 7 7 7 7 7 7 7 7 8
3 3 3 2 2 1 1 1 1 1 2 1 3 3 3 3 3 3 2 2 2 2 2 2 2 3 5 6 7 6 7 7 7 7 7 8 8 8
2 2 2 2 2 1 1 1 0 1 2 1 2 3 3 3 1 1 0 1 2 2 1 1 2 3 3 3 4 6 8 8 8 8 8 8 8 8
1 2 2 2 3 2 2 2 1 1 1 1 1 1 1 0 1 2 2 2 2 2 1 0 1 2 3 2 3 5 6 7 8 8 9 9 9 7
1 1 2 2 2 1 1 2 2 1 1 0 1 1 1 0 1 1 1 2 2 3 2 1 1 1 2 3 3 3 4 5 6 7 8 9 9 8
1 1 2 1 1 0 0 0 1 2 1 0 0 0 1 1 1 1 1 2 2 4 4 2 2 2 2 3 4 3 3 4 4 4 6 8 9 9
1 1 1 0 1 1 1 2 2 1 1 1 0 1 1 1 1 1 1 2 2 3 3 4 3 2 2 3 4 4 4 3 3 3 4 5 5 5
1 0 1 2 2 2 2 1 1 0 1 1 1 1 1 1 0 0 1 1 2 2 3 3 3 3 3 4 4 5 4 3 3 4 4 4 5 6
0 1 1 1 1 1 1 1 1 1 1 0 0 1 1 1 1 1 1 1 1 2 2 2 3 3 3 4 4 4 4 3 4 4 4 5 5 5
1 1 1 1 1 0 0 0 0 0 0 0 0 1 1 1 1 1 1 1 1 2 2 2 2 3 2 2 3 4 3 3 3 4 4 4 5 5
2 1 1 1 1 0 0 0 1 0 0 0 0 1 1 1 1 1 2 1 2 2 2 2 1 1 2 3 3 2 2 3 3 4 4 4 5 6
1 1 1 1 1 1 1 1 0 0 0 1 1 1 1 1 1 1 2 2 2 2 2 2 2 2 2 2 2 3 4 3 3 4 4 4 4 6
0 0 0 1 1 1 1 1 1 1 0 1 1 1 1 1 1 1 2 3 2 2 2 3 3 4 2 1 2 3 3 5 5 4 4 4 4 3
0 0 1 0 0 1 1 1 1 1 1 1 1 1 1 1 1 2 2 2 2 2 3 3 2 2 1 1 3 3 4 4 6 7 6 5 3 3
1 1 1 1 1 1 1 1 1 1 1 1 1 1 1 1 1 1 2 2 2 2 2 2 2 2 2 2 2 3 4 5 4 4 5 7 7 8
Wind_Direction
279 273 275 276 266 260 200 184 185 226 256 274 298 347 2 1 0 6 358 350 347 344 338 336 337 332 328 317 310 308 308 307 306 304 301 300 303 306
289 288 287 271 291 289 223 260 214 205 234 257 270 287 349 350 349 357 349 352 348 343 340 339 339 334 325 329 326 315 304 299 300 299 300 299 301 306
284 270 271 279 279 277 303 259 227 226 237 269 270 278 326 342 343 346 344 350 341 336 335 337 340 337 328 322 320 318 312 305 301 298 296 297 300 306
261 259 264 268 259 258 250 241 236 238 214 238 252 270 272 314 341 339 342 348 338 330 332 340 344 340 330 322 320 317 312 306 305 304 302 301 302 303
246 239 245 245 260 253 248 242 244 249 211 199 231 244 277 324 358 346 349 346 342 336 346 353 350 342 334 329 323 322 319 311 306 301 300 304 304 303
250 242 241 235 241 236 241 238 233 236 208 192 213 230 262 293 13 346 343 349 341 342 352 351 348 346 342 340 332 323 319 313 308 305 306 309 309 307
262 256 251 253 256 252 243 223 208 215 214 204 218 217 218 267 298 312 324 329 329 345 348 338 337 337 336 338 337 331 321 315 314 314 313 312 314 314
260 265 261 254 270 268 258 240 221 215 218 215 222 219 234 240 250 270 292 318 312 338 344 322 328 329 329 329 332 333 334 330 325 324 323 321 322 321
247 256 275 282 294 270 266 273 274 269 251 228 215 231 236 230 234 260 269 278 272 282 317 305 325 320 325 326 329 332 333 335 336 334 331 329 329 328
239 233 236 258 259 244 214 240 287 307 293 249 221 232 231 231 222 234 252 287 287 298 300 290 316 313 320 320 326 342 351 348 343 340 336 330 327 324
256 243 237 237 247 238 171 176 250 306 328 305 257 246 246 250 233 137 221 303 302 304 328 275 300 315 314 310 329 350 351 347 343 342 339 337 332 328
250 251 254 251 253 231 175 174 218 247 264 351 359 345 339 273 247 196 195 218 274 286 284 288 286 328 325 309 319 328 332 334 336 338 339 337 336 338
234 253 264 269 263 248 205 180 212 209 149 213 328 321 358 5 313 278 218 208 236 260 256 264 272 291 283 304 318 317 325 330 331 329 333 333 331 331
237 240 250 271 284 229 116 103 85 88 104 102 4 306 291 295 307 306 297 280 257 252 249 243 243 254 277 293 297 308 323 322 323 323 330 332 330 328
262 261 296 316 23 51 70 64 65 84 118 135 219 298 305 274 290 339 351 352 337 302 276 266 241 246 248 266 277 288 309 311 310 316 325 324 319 321
322 20 56 55 55 54 69 63 55 100 139 190 248 294 308 305 318 351 345 357 351 337 333 316 276 247 266 263 261 274 280 281 301 309 310 310 315 318
141 94 74 68 66 49 56 53 51 65 65 38 326 309 324 339 335 342 341 347 324 308 326 342 340 313 273 261 258 260 268 275 281 300 312 312 307 312
138 141 139 128 151 163 146 47 27 49 36 335 333 320 326 323 332 340 336 326 306 297 302 313 337 347 344 318 252 251 263 275 292 301 302 304 304 309
134 154 163 174 174 169 201 228 262 294 322 335 336 318 325 330 334 331 332 325 307 298 293 290 300 310 316 317 308 268 260 288 298 301 294 288 292 299
107 167 185 196 195 199 215 237 258 271 285 298 295 296 306 316 320 316 312 308 308 311 313 312 294 275 262 270 281 292 284 280 290 297 302 300 293 299
332 275 271 233 207 208 216 224 229 243 266 286 281 287 286 291 298 306 312 319 326 318 308 303 297 308 297 278 282 288 292 300 297 292 299 307 310 312
312 298 306 299 248 222 212 211 230 246 261 274 279 276 289 290 284 290 295 301 305 304 306 305 308 321 315 284 289 296 306 316 323 320 309 293 293 293
320 315 309 293 274 245 216 215 230 246 257 261 270 269 269 282 284 286 291 296 303 305 314 319 326 325 312 293 293 301 308 319 325 331 325 322 309 296
Height
1477 1477 1477 1477 1478 1478 1478 1479 1480 1479 1479 1479 1479 1480 1480 1480 1480 1480 1480 1480 1479 1479 1479 1478 1478 1478 1478 1477 1477 1477 1477 1476 1476 1476 1475 1475 1474 1474
1474 1474 1474 1474 1474 1474 1475 1475 1476 1476 1475 1475 1476 1477 1477 1477 1477 1477 1476 1476 1476 1475 1475 1475 1474 1474 1473 1473 1473 1473 1472 1472 1471 1471 1471 1470 1470 1469
1471 1471 1471 1471 1471 1471 1472 1472 1473 1473 1472 1472 1474 1474 1474 1474 1474 1474 1473 1473 1473 1472 1472 1471 1470 1469 1469 1469 1468 1468 1468 1467 1467 1466 1466 1466 1465 1465
1468 1468 1468 1468 1468 1468 1468 1469 1469 1470 1470 1469 1470 1471 1471 1471 1471 1471 1470 1470 1470 1469 1468 1467 1466 1466 1465 1465 1464 1464 1463 1462 1462 1461 1461 1461 1460 1460
1465 1465 1465 1465 1465 1465 1466 1466 1466 1466 1466 1466 1466 1467 1468 1468 1468 1468 1467 1467 1466 1466 1465 1464 1463 1462 1461 1461 1460 1459 1458 1458 1457 1457 1456 1456 1456 1455
1463 1463 1462 1462 1462 1462 1462 1463 1463 1463 1463 1463 1464 1464 1465 1465 1465 1465 1464 1463 1463 1462 1461 1460 1460 1459 1458 1457 1456 1455 1454 1453 1453 1452 1452 1452 1451 1451
1460 1460 1460 1459 1459 1459 1460 1460 1460 1459 1460 1460 1460 1461 1461 1462 1462 1461 1461 1460 1460 1459 1458 1458 1457 1455 1455 1453 1452 1451 1450 1450 1449 1449 1448 1448 1447 1447
1457 1457 1457 1457 1456 1456 1457 1457 1457 1457 1457 1457 1457 1457 1458 1459 1459 1459 1459 1457 1456 1457 1456 1455 1454 1453 1451 1450 1449 1448 1447 1446 1445 1445 1444 1443 1443 1442
1454 1454 1454 1454 1453 1453 1453 1453 1454 1454 1454 1455 1454 1455 1455 1456 1456 1456 1456 1455 1454 1454 1453 1451 1451 1450 1449 1447 1446 1445 1443 1442 1442 1441 1440 1440 1439 1438
1451 1451 1451 1451 1450 1450 1450 1450 1450 1451 1451 1452 1452 1453 1453 1453 1454 1454 1453 1452 1452 1451 1451 1448 1447 1446 1445 1444 1443 1442 1441 1440 1439 1438 1437 1436 1435 1434
1449 1449 1448 1448 1448 1448 1448 1448 1448 1448 1449 1449 1450 1450 1450 1451 1451 1451 1450 1450 1448 1448 1447 1446 1444 1443 1442 1441 1440 1439 1438 1437 1436 1434 1434 1433 1432 1430
1446 1446 1446 1446 1446 1446 1446 1446 1445 1445 1446 1446 1447 1447 1447 1448 1448 1448 1447 1447 1446 1445 1444 1444 1442 1441 1439 1438 1437 1437 1435 1434 1433 1432 1431 1429 1428 1427
1443 1444 1444 1444 1444 1444 1444 1443 1443 1443 1443 1443 1443 1444 1444 1445 1445 1445 1445 1444 1443 1442 1442 1441 1440 1439 1438 1435 1434 1433 1432 1431 1430 1428 1428 1426 1425 1424
1441 1441 1442 1442 1441 1441 1441 1441 1441 1441 1441 1441 1441 1441 1442 1442 1442 1442 1441 1441 1440 1440 1439 1438 1437 1436 1435 1433 1431 1430 1430 1429 1427 1426 1425 1423 1422 1421
1439 1439 1440 1440 1440 1439 1439 1439 1439 1439 1439 1439 1439 1439 1439 1439 1439 1438 1438 1438 1437 1436 1436 1435 1435 1434 1433 1431 1429 1428 1426 1426 1425 1423 1422 1420 1419 1417
1438 1438 1438 1438 1438 1438 1438 1438 1437 1437 1437 1437 1437 1437 1437 1436 1436 1435 1435 1434 1434 1433 1433 1432 1432 1431 1430 1428 1427 1425 1425 1424 1422 1421 1419 1418 1416 1415
1436 1436 1436 1436 1436 1436 1436 1436 1436 1436 1435 1435 1435 1435 1434 1434 1433 1433 1432 1432 1431 1430 1430 1430 1429 1428 1427 1426 1425 1424 1422 1422 1420 1419 1417 1414 1413 1412
1434 1434 1434 1434 1434 1434 1434 1434 1434 1434 1434 1434 1434 1433 1433 1432 1431 1431 1431 1430 1429 1428 1428 1427 1426 1425 1425 1424 1424 1422 1421 1419 1418 1417 1415 1412 1410 1410
1432 1432 1432 1432 1433 1433 1433 1433 1433 1433 1433 1432 1432 1432 1431 1431 1430 1430 1429 1429 1428 1427 1426 1426 1425 1424 1422 1421 1421 1421 1419 1417 1416 1414 1412 1410 1408 1407
1430 1430 1431 1431 1431 1431 1431 1431 1431 1431 1431 1431 1430 1430 1430 1429 1429 1428 1428 1427 1426 1425 1425 1424 1423 1423 1422 1421 1419 1419 1418 1416 1413 1411 1410 1408 1406 1405
1428 1429 1429 1429 1429 1430 1430 1430 1430 1430 1429 1429 1429 1428 1428 1428 1427 1427 1427 1426 1425 1424 1423 1422 1422 1421 1420 1419 1417 1416 1415 1414 1412 1410 1407 1405 1403 1402
1427 1427 1428 1428 1428 1428 1428 1428 1428 1428 1428 1428 1427 1427 1427 1427 1426 1426 1425 1424 1423 1423 1422 1421 1420 1419 1418 1417 1415 1414 1413 1412 1411 1409 1407 1405 1403 1400
1426 1426 1426 1426 1426 1427 1427 1427 1427 1426 1426 1426 1426 1426 1426 1425 1425 1424 1424 1423 1422 1421 1420 1419 1418 1417 1416 1415 1414 1412 1411 1410 1408 1407 1406 1404 1402 1401